Weather in Yelaur

Russia / Ulyanovsk Oblast     54°34′08″N   50°21′45″E
temp.,
°C
wind,
m/s
gust,
m/s
humid.,
%
clouds,
%
prec.,
mm/h
press.,
hPa
HPBL,
m
26 february, fri
fri2601:00−17sse51095100 0.3 1018487
04:00−17se51194100 0.4 1018451
07:00−18se41095100 0.1 1017335
10:00−16se599399 0.1 1017402
13:00−13se5891100 0.1 1017521
16:00−12sse51090100 0.1 1015609
19:00−13sse61391100 0.1 1012557
22:00−12sse71594100 0.6 1008532
27 february, sat
sat2701:00−11sse71594100 4.5 1002589
04:00−9sse51194100 7.2 1000387
07:00−7sse3696100 0.7 998203
10:00−2ssw2598100 1.6 998220
13:00+1wsw38100100 0.1 998524
16:000sw37100100 0.5 998407
19:000sw3699100 0.9 998285
22:000sw2599100 2.0 998214
28 february, sun
sun2801:00−1sw2399100 0.4 998143
04:00−2w1298100 1.2 100053
07:00−8n4895100 0.6 1001254
10:00−10n489399 0.8 1003347
13:00−10n5892100 0.2 1006425
16:00−10n5991100 0.3 1008498
19:00−13nnw4994100 0.1 1010340
22:00−15nnw379595 0.1 1013217
1 march, mon
mon101:00−18nnw379690 0.0 1015163
04:00−20nnw369759 0.0 1017134
07:00−22nnw36970 0.0 1019132
10:00−19nnw36939 0.0 1020263
13:00−15nnw369264 0.0 1022350
16:00−14nnw369273 0.0 1022340
19:00−19nnw239747 0.0 102330
22:00−21wnw129923 0.0 102420
2 march, tue
tue201:00−21wsw229921 0.0 102320
04:00−21sw339811 0.0 102149
07:00−19ssw489767 0.0 1018176
10:00−15ssw5109684 0.0 1015270
13:00−10ssw51094100 0.3 1012405
16:00−8ssw51094100 0.9 1009462
19:00−5ssw4996100 0.4 1007341
22:00−5sw3897100 0.8 1006234